Location: *
(47.8307°S, 178.3954°E)
Time: 08:34:32
(UTC+00:00)

Cosmos 2369 Rocket - Pass Details

Date: 12 August 2024
Orbit: 826 x 853 km, 71.0° (Epoch: 19 September)

Event Time Altitude Azimuth Distance (km) Brightness Sun altitude
Rises 18:32:29 0° 347° (NNW) 3,410 5.4 -7.3°
Reaches altitude 10° 18:34:57 10° 350° (N) 2,479 4.7 -6.9°
Maximum altitude 18:40:33 60° 68° (ENE) 975 3.0 -6.0°
Drops below altitude 10° 18:46:10 10° 146° (SSE) 2,490 4.9 -5.1°
Sets 18:48:39 0° 149° (SSE) 3,427 5.6 -4.7°
